This is the latest recevied weather packets stored in our database for station/object IN3XSV-15. If no packets are shown the sender has not sent any weather packets the latest 10 day(s).
| Time | Temp. | Humidity | Pressure | Rain* | Wind** | Luminosity | Snow |
|---|---|---|---|---|---|---|---|
| 1777907700 | 10° C | 71% | 860.1 hPa | 0 mm | - | - | - |
| 1777907400 | 10° C | 70% | 860.1 hPa | 0 mm | - | - | - |
| 1777907100 | 10° C | 70% | 859.9 hPa | 0 mm | - | - | - |
| 1777906800 | 10° C | 70% | 859.9 hPa | 0 mm | - | - | - |
| 1777906500 | 10° C | 69% | 860 hPa | 0 mm | - | - | - |
| 1777906200 | 10° C | 69% | 860 hPa | 0 mm | - | - | - |
| 1777905900 | 10.56° C | 69% | 860 hPa | 0 mm | - | - | - |
| 1777905600 | 10.56° C | 68% | 860.2 hPa | 0 mm | - | - | - |
| 1777905300 | 10.56° C | 68% | 860.1 hPa | 0 mm | - | - | - |
| 1777905000 | 10.56° C | 67% | 860.2 hPa | 0 mm | - | - | - |
| 1777904700 | 10.56° C | 66% | 860.1 hPa | 0 mm | - | - | - |
| 1777904400 | 10.56° C | 66% | 860.2 hPa | 0 mm | - | - | - |
| 1777904103 | 11.11° C | 66% | 860.3 hPa | 0 mm | - | - | - |
| 1777903800 | 11.67° C | 65% | 860.3 hPa | 0 mm | - | - | - |
| 1777903500 | 11.67° C | 64% | 860.3 hPa | 0 mm | - | - | - |
| 1777903200 | 11.67° C | 65% | 860.2 hPa | 0 mm | - | - | - |
| 1777902900 | 12.22° C | 64% | 860.3 hPa | 0 mm | - | - | - |
| 1777902600 | 11.67° C | 64% | 860.3 hPa | 0 mm | - | - | - |
| 1777902301 | 11.67° C | 64% | 860.2 hPa | 0 mm | - | - | - |
| 1777902000 | 11.67° C | 65% | 860.3 hPa | 0 mm | - | - | - |
| 1777901700 | 11.11° C | 67% | 860.3 hPa | 0 mm | - | - | - |
| 1777901400 | 11.11° C | 67% | 860.4 hPa | 0 mm | - | - | - |
| 1777901100 | 11.11° C | 66% | 860.4 hPa | 0 mm | - | - | - |
| 1777900800 | 11.11° C | 66% | 860.4 hPa | 0 mm | - | - | - |
| 1777900500 | 11.67° C | 65% | 860.5 hPa | 0 mm | - | - | - |
* Rain latest hour (hover to see other rain measurements)
** Current wind speed in m/s (hover to see current wind gust speed)